DW0465 Weather Reports


Display with metric or nautical units.
time (UTC)temp
F
wind
direction
speed
MPH
gust
MPH
rain 1hr
in
rain 24hr
in
rain mn
in
humidity
%
barometer
mb
20260831134512 42 190 0.0 0.0 0.00 0.00 0.00 48 1012.4
20260831133009 41 193 0.0 0.0 0.00 0.00 0.00 52 1012.1
20260831131507 40 190 0.0 2.0 0.00 0.00 0.00 53 1011.9
20260831130008 39 226 0.0 0.0 0.00 0.00 0.00 60 1011.6
20260831124502 40 205 0.0 0.0 0.00 0.00 0.00 58 1011.2
20260831123059 39 184 0.0 1.0 0.00 0.00 0.00 56 1010.9
20260831121557 39 196 0.0 0.0 0.00 0.00 0.00 63 1010.8
20260831120053 41 196 0.0 0.0 0.00 0.00 0.00 62 1010.5
20260831114552 41 203 0.0 2.0 0.00 0.00 0.00 49 1010.4
20260831113049 41 193 0.0 2.0 0.00 0.00 0.00 51 1010.3
20260831111554 43 225 0.0 1.0 0.00 0.00 0.00 49 1010.2
20260831110049 42 168 0.0 0.0 0.00 0.00 0.00 48 1010.0
20260831104545 43 165 0.0 1.0 0.00 0.00 0.00 50 1010.1
20260831103044 42 176 0.0 0.0 0.00 0.00 0.00 52 1010.1
20260831101551 42 191 0.0 0.0 0.00 0.00 0.00 55 1010.0
20260831100043 42 223 0.0 0.0 0.00 0.00 0.00 57 1009.9
20260831094536 44 208 0.0 0.0 0.00 0.00 0.00 52 1009.7
20260831093038 44 171 0.0 0.0 0.00 0.00 0.00 49 1009.3
20260831091550 45 206 0.0 0.0 0.00 0.00 0.00 51 1009.1
20260831090029 46 188 0.0 0.0 0.00 0.00 0.00 52 1009.0
20260831084523 48 228 0.0 0.0 0.00 0.00 0.00 47 1009.0
20260831083020 49 215 0.0 2.0 0.00 0.00 0.00 42 1008.7
20260831081533 49 183 0.0 1.0 0.00 0.00 0.00 43 1008.6
20260831080042 50 211 0.0 4.0 0.00 0.00 0.00 42 1008.3
20260831074515 50 213 0.0 1.0 0.00 0.00 0.00 43 1008.4
20260831073039 51 215 0.0 2.0 0.00 0.00 0.00 42 1008.3
20260831071514 51 189 0.0 0.0 0.00 0.00 0.00 42 1008.4
20260831070016 50 212 0.0 0.0 0.00 0.00 0.00 43 1008.2
20260831064514 50 214 0.0 2.0 0.00 0.00 0.00 44 1008.2
20260831063020 51 207 0.0 1.0 0.00 0.00 0.00 42 1008.4
20260831061510 51 205 0.0 0.0 0.00 0.00 0.00 41 1008.4
20260831060005 50 208 0.0 3.0 0.00 0.00 0.00 43 1008.3
20260831054504 50 198 0.0 5.0 0.00 0.00 0.00 45 1008.1
20260831053101 51 218 0.0 0.0 0.00 0.00 0.00 44 1008.4
20260831051600 52 202 0.0 0.0 0.00 0.00 0.00 44 1008.5
20260831050101 53 148 0.0 0.0 0.00 0.00 0.00 41 1008.4
20260831044603 54 173 0.0 2.0 0.00 0.00 0.00 37 1008.2
20260831043056 55 166 0.0 0.0 0.00 0.00 0.00 37 1008.2
20260831041607 56 206 0.0 1.0 0.00 0.00 0.00 38 1008.0
20260831040054 57 172 0.0 0.0 0.00 0.00 0.00 34 1007.7
20260831034558 57 193 0.0 0.0 0.00 0.00 0.00 37 1007.9
20260831033052 57 202 0.0 0.0 0.00 0.00 0.00 37 1007.6
20260831031550 58 225 0.0 0.0 0.00 0.00 0.00 38 1007.5
20260831030055 59 155 0.0 0.0 0.00 0.00 0.00 37 1007.6
20260831024547 60 180 0.0 0.0 0.00 0.00 0.00 31 1007.1
20260831023045 62 171 0.0 0.0 0.00 0.00 0.00 30 1006.8
20260831021547 63 302 0.0 0.0 0.00 0.00 0.00 27 1006.6
20260831020043 65 80 0.0 2.0 0.00 0.00 0.00 21 1006.2
20260831014543 67 316 0.0 0.0 0.00 0.01 0.00 34 1006.0
20260831013050 70 295 0.0 0.0 0.00 0.01 0.00 19 1005.7
20260831011546 71 288 0.0 7.0 0.00 0.01 0.00 18 1005.7
20260831010100 72 308 0.0 0.0 0.00 0.01 0.00 20 1005.7
20260831004539 74 267 0.0 0.0 0.00 0.03 0.00 21 1005.7
20260831003043 73 266 0.0 0.0 0.00 0.03 0.00 19 1005.7
20260831001541 74 318 0.0 2.0 0.00 0.03 0.00 19 1005.7
20260831000039 74 317 0.0 0.0 0.00 0.03 0.00 20 1005.7
20260830234537 74 355 0.0 2.0 0.00 0.03 0.00 20 1005.8
20260830233037 75 299 0.0 0.0 0.00 0.03 0.00 21 1005.6
20260830231538 75 283 0.0 0.0 0.00 0.03 0.00 16 1005.5
20260830230133 74 311 0.0 2.0 0.00 0.03 0.00 18 1005.6
20260830224535 74 304 0.0 3.0 0.00 0.03 0.00 18 1005.4
20260830223033 74 260 0.0 10.0 0.00 0.03 0.00 21 1005.6
20260830221532 74 304 0.0 6.0 0.00 0.03 0.00 20 1005.6
20260830220036 74 323 0.0 2.0 0.00 0.03 0.00 19 1005.5
20260830214529 74 296 0.0 9.0 0.00 0.03 0.00 20 1005.3
20260830213028 74 299 1.0 5.0 0.00 0.03 0.00 21 1005.3
20260830211528 74 255 0.0 4.0 0.00 0.03 0.00 22 1005.2
20260830210026 73 274 0.0 4.0 0.00 0.03 0.00 24 1005.2
20260830204532 73 334 0.0 7.0 0.00 0.07 0.00 23 1005.2
20260830203022 73 238 1.0 8.0 0.00 0.07 0.00 25 1005.1
20260830201522 72 215 0.0 14.0 0.00 0.07 0.00 25 1005.1
20260830200017 70 282 0.0 3.0 0.00 0.07 0.00 32 1004.9
20260830194516 68 40 0.0 0.0 0.00 0.07 0.00 41 1004.9
20260830193015 66 355 0.0 0.0 0.00 0.07 0.00 50 1005.3
20260830191515 64 92 0.0 0.0 0.00 0.07 0.00 60 1005.6
20260830190015 61 316 0.0 0.0 0.00 0.07 0.00 69 1006.0
20260830184513 61 49 0.0 0.0 0.00 0.07 0.00 64 1006.4
20260830183012 61 5 0.0 3.0 0.00 0.07 0.00 62 1006.3
20260830181512 60 45 0.0 2.0 0.00 0.07 0.00 67 1006.4
20260830180012 61 22 0.0 4.0 0.00 0.07 0.00 67 1006.1
20260830174510 62 32 0.0 8.0 0.00 0.07 0.00 65 1005.5
20260830173006 61 17 1.0 4.0 0.00 0.07 0.00 65 1005.6
20260830171508 66 251 0.0 2.0 0.00 0.07 0.00 41 1005.1
20260830170105 66 236 0.0 5.0 0.00 0.07 0.00 40 1005.0
20260830164504 68 244 0.0 4.0 0.00 0.08 0.00 38 1005.3
20260830163002 69 158 0.0 1.0 0.00 0.08 0.00 40 1005.2
20260830161615 70 161 0.0 0.0 0.00 0.08 0.00 43 1004.9
20260830160058 70 152 0.0 0.0 0.00 0.08 0.00 43 1004.8
20260830154553 68 167 0.0 2.0 0.00 0.10 0.00 45 1004.8
20260830153049 66 200 0.0 0.0 0.00 0.10 0.00 48 1004.9
20260830151548 63 205 0.0 0.0 0.00 0.10 0.00 53 1005.5
20260830150040 62 196 0.0 1.0 0.00 0.10 0.00 55 1005.7
20260830144536 60 221 0.0 0.0 0.00 0.10 0.00 61 1005.7
20260830143031 58 221 0.0 0.0 0.00 0.10 0.00 64 1005.7
20260830141526 55 198 0.0 0.0 0.00 0.10 0.00 68 1005.9
20260830140030 54 195 0.0 0.0 0.00 0.10 0.00 69 1006.1